TimeEST,TemperatureF,Dew PointF,Humidity,Sea Level PressureIn,VisibilityMPH,Wind Direction,Wind SpeedMPH,Gust SpeedMPH,PrecipitationIn,Events,Conditions,WindDirDegrees,DateUTC
12:55 AM,49.3,48.7,98,30.43,10.0,Calm,Calm,-,N/A,,Clear,0,2013-01-10 05:55:00
1:55 AM,49.5,49.3,99,30.43,8.0,Calm,Calm,-,N/A,,Clear,0,2013-01-10 06:55:00
2:55 AM,49.5,49.3,99,30.43,10.0,Calm,Calm,-,N/A,,Clear,0,2013-01-10 07:55:00
3:55 AM,50.2,50.0,99,30.42,10.0,Calm,Calm,-,N/A,,Clear,0,2013-01-10 08:55:00
4:55 AM,49.3,48.9,99,30.41,10.0,Calm,Calm,-,N/A,,Clear,0,2013-01-10 09:55:00
5:51 AM,48.2,48.2,100,30.42,2.5,Calm,Calm,-,N/A,,Clear,0,2013-01-10 10:51:00
5:55 AM,48.6,48.4,99,30.42,2.5,Calm,Calm,-,N/A,,Clear,0,2013-01-10 10:55:00
5:57 AM,48.2,48.2,100,30.42,3.0,Calm,Calm,-,N/A,,Clear,0,2013-01-10 10:57:00
6:55 AM,50.2,49.3,97,30.44,10.0,NNE,4.6,-,N/A,,Mostly Cloudy,30,2013-01-10 11:55:00
7:55 AM,52.2,49.6,91,30.46,7.0,Calm,Calm,-,N/A,,Mostly Cloudy,0,2013-01-10 12:55:00
8:55 AM,55.9,51.3,84,30.46,10.0,ENE,6.9,-,N/A,,Mostly Cloudy,60,2013-01-10 13:55:00
9:55 AM,60.8,50.9,70,30.48,10.0,ENE,9.2,-,N/A,,Mostly Cloudy,60,2013-01-10 14:55:00
10:55 AM,66.2,52.2,61,30.46,10.0,NE,6.9,-,N/A,,Mostly Cloudy,50,2013-01-10 15:55:00
11:55 AM,70.2,51.8,52,30.43,10.0,NE,9.2,-,N/A,,Mostly Cloudy,50,2013-01-10 16:55:00
12:55 PM,71.8,51.6,49,30.40,10.0,East,6.9,-,N/A,,Mostly Cloudy,100,2013-01-10 17:55:00
1:55 PM,72.3,51.8,48,30.40,10.0,ENE,6.9,-,N/A,,Mostly Cloudy,70,2013-01-10 18:55:00
2:55 PM,73.6,52.2,47,30.39,10.0,Variable,6.9,-,N/A,,Mostly Cloudy,0,2013-01-10 19:55:00
3:55 PM,72.1,52.7,50,30.38,10.0,ESE,9.2,-,N/A,,Mostly Cloudy,110,2013-01-10 20:55:00
4:55 PM,70.5,52.9,54,30.38,10.0,East,6.9,-,N/A,,Mostly Cloudy,100,2013-01-10 21:55:00
5:55 PM,68.0,53.6,60,30.40,10.0,East,3.5,-,N/A,,Overcast,80,2013-01-10 22:55:00
6:55 PM,65.7,53.4,65,30.40,10.0,SE,4.6,-,N/A,,Overcast,140,2013-01-10 23:55:00
7:50 PM,66.2,51.8,60,30.40,10.0,ESE,9.2,-,N/A,,Light Drizzle,110,2013-01-11 00:50:00
7:55 PM,64.6,54.0,68,30.40,10.0,ESE,8.1,-,0.00,,Light Drizzle,120,2013-01-11 00:55:00
8:20 PM,60.8,55.4,82,30.40,10.0,SSE,3.5,-,N/A,,Overcast,150,2013-01-11 01:20:00
8:55 PM,61.7,54.3,77,30.39,10.0,East,5.8,-,0.00,,Overcast,100,2013-01-11 01:55:00
9:24 PM,60.8,55.4,82,30.39,5.0,ESE,8.1,-,N/A,,Light Drizzle,120,2013-01-11 02:24:00
9:27 PM,60.8,57.2,88,30.40,3.0,ESE,8.1,-,N/A,,Light Drizzle,120,2013-01-11 02:27:00
9:34 PM,60.8,57.2,88,30.40,4.0,ESE,6.9,-,N/A,,Light Drizzle,110,2013-01-11 02:34:00
9:42 PM,59.0,59.0,100,30.39,7.0,ESE,5.8,-,N/A,,Overcast,110,2013-01-11 02:42:00
9:48 PM,59.0,59.0,100,30.39,10.0,East,6.9,-,N/A,,Overcast,100,2013-01-11 02:48:00
9:55 PM,59.5,58.8,97,30.38,10.0,East,6.9,-,0.00,,Overcast,90,2013-01-11 02:55:00
10:08 PM,59.0,59.0,100,30.38,10.0,East,9.2,-,N/A,,Overcast,80,2013-01-11 03:08:00
10:55 PM,59.2,58.8,99,30.38,10.0,ESE,5.8,-,N/A,,Overcast,110,2013-01-11 03:55:00
11:55 PM,58.6,58.3,99,30.37,10.0,ESE,10.4,-,N/A,,Overcast,110,2013-01-11 04:55:00